CZ-6A DEB, 54606

Orbit data source: Space-Track

CZ-6A DEB, 54606 is space debris in SSO originally from a launch on Fri, 11 Nov 2022 UTC launched from the Taiyaun Space Center, China (TSC). Debris objects in space refer to the collection of defunct objects orbiting the Earth. Examples of debris include non-operational satellites, rocket bodies, and fragments generated from explosions, collisions, or faulty payload assembly.

Loading next visibility...
Identifier
54606, 2022-151NG
Orbit
SSO
Country
Flag of CNCN / PRC
Related business
Manufacturer
SAST
Mission
Spacecraft
Bus & Motor
Unknown
Mass
Unknown
Launch date (UTC)
2022-11-11 (3 years ago)
Launch vehicle
Unknown
Launch site
Taiyaun Space Center, China (TSC)
Object type
Payload
Rocket body
Debris
Shape & HBR
Unknown shape, 0.1 m
Radar Cross Section
Small (<0.1 m²)

Expand to show TLE details & history
Last TLE update: 1 day ago

TLE from 1 day ago
0 CZ-6A DEB
1 54606U 22151NG  25350.98489635  .00006213  00000-0  22615-2 0  9999
2 54606  98.8019   8.6880 0060488 128.8525 231.8078 14.32491495159832
Epoch: 2025-12-16T23:38Z
TLE epoch observation values (Epoch: 2025-12-16T23:38:15.044Z)
Latitude
-0.00001°
Longitude
-71.73594°
Altitude
813.294 km
Speed
7.433 km/s
True Right ascension
00h 34m 45s
True Declination
0° 00' 00"
Sunlit
Object was in daylight at epoch
Visualization orbit readout
Latitude
Unknown
Longitude
Unknown
Altitude
Unknown
Speed
Unknown
Apparent Right ascension
Unknown
Apparent Declination
Unknown
Sunlit
N/A
Visualization observer readout
Local Sidereal Time
09:07:13
Azimuth
Unknown
Elevation
Unknown
Doppler factor
Unknown
Orbital elements
Apogee altitude
823.863 km
Perigee altitude
737.26 km
Semi-major axis
7,158.698 km
Eccentricity
0.00605
Inclination
98.8019°
RAAN
8.688°
Arg. of periapsis
128.8525°
True anomaly
231.26558°
Mean anomaly
231.8078°
Eccentric anomaly
231.53643°
Mean motion
3.58337 °/min
Orbital period
100.46 mins
BSTAR
0.0022615
Loading maneuver chart data...
Computing Atmospheric mass density...
Loading historical data...
Loading historical data...
Loading historical data...
Loading historical data...
Loading historical data...
Loading historical data...
Loading historical data...

Documentation

Showing up to 5 results
|